[[[{"header":{"parameterUnit":"kt","parameterCategory":2,"dx":1,"dy":1,"la1":30.253999710083008,"la2":30.299108505249023,"lo1":-89.0895004272461,"lo2":-89.04439544677734,"nx":28,"ny":28,"refTime":"2022-09-30T21:00:00:Z","depth":"0","parameterNumber":2,"parameterNumberName":"U-component_of_CURRENTS"},"data":[-0.0472,-0.0421,-0.0398,-0.0319,-0.0273,-0.0165,-0.0112,-0.0022,0.0013,-0.0003,-0.0065,-0.0124,-0.0504,-0.0909,-0.109,-0.0986,-0.0952,-0.0896,-0.0896,-0.0842,-0.0826,-0.0811,-0.0878,-0.0968,-0.0968,-0.0909,-0.091,-0.0911,-0.0457,-0.0403,-0.0368,-0.0329,-0.0281,-0.0253,-0.0166,-0.0098,-0.0057,-0.0066,-0.0058,-0.015,-0.0258,-0.0362,-0.0604,-0.0681,-0.0594,-0.0694,-0.0678,-0.0615,-0.0505,-0.0562,-0.0585,-0.0585,-0.0585,-0.0585,-0.0584,-0.0584,-0.0434,-0.041,-0.0374,-0.0349,-0.0299,-0.0235,-0.0192,-0.0139,-0.0135,-0.012,-0.0133,-0.0119,-0.0198,-0.0257,-0.0284,-0.0438,-0.0383,-0.0494,-0.0545,-0.0544,-0.0554,-0.0497,-0.0436,-0.0437,-0.0437,-0.0437,-0.0437,0,-0.0397,-0.0401,-0.0365,-0.031,-0.028,-0.0229,-0.0198,-0.019,-0.0192,-0.0188,-0.0183,-0.0172,-0.0188,-0.0229,-0.0258,-0.0268,-0.0405,-0.0337,-0.0429,-0.0499,-0.0559,-0.0599,-0.0516,-0.0296,-0.0295,-0.0295,-0.0295,-0.0295,-0.0374,-0.0354,-0.0294,-0.0266,-0.0245,-0.0221,-0.0219,-0.0232,-0.0209,-0.0234,-0.0236,-0.0224,-0.0206,-0.0266,-0.0312,-0.0301,-0.032,-0.032,-0.0379,-0.0515,-0.066,-0.0694,-0.0668,-0.029,-0.0291,-0.0291,-0.0292,0,-0.0349,-0.0281,-0.0257,-0.0196,-0.0181,-0.0196,-0.0213,-0.0206,-0.0244,-0.0248,-0.0252,-0.0276,-0.0279,-0.0293,-0.0289,-0.0351,-0.0385,-0.0325,-0.0332,-0.0415,-0.0611,-0.0687,-0.0531,-0.0487,-0.0351,-0.0353,-0.0354,0,-0.0264,-0.0248,-0.0129,-0.0143,-0.0141,-0.0166,-0.0198,-0.0217,-0.0244,-0.027,-0.0277,-0.0289,-0.0353,-0.035,-0.0376,-0.041,-0.0334,-0.0446,-0.0529,-0.0524,-0.0541,-0.0668,-0.0755,-0.0325,-0.0326,-0.0326,-0.0327,0,-0.0189,-0.0172,-0.0136,-0.0155,-0.0181,-0.0176,-0.021,-0.0247,-0.0294,-0.0297,-0.0328,-0.0327,-0.0405,-0.0357,-0.0458,-0.053,-0.044,-0.057,-0.0584,-0.0598,-0.0609,-0.0634,-0.0423,-0.0328,-0.0329,-0.0329,-0.0329,0,-0.0166,-0.0119,-0.0114,-0.0133,-0.016,-0.0205,-0.0224,-0.0294,-0.0331,-0.0395,-0.0381,-0.0511,-0.0488,-0.0572,-0.0553,-0.0665,-0.0654,-0.0724,-0.0725,-0.0887,-0.1126,-0.0976,-0.0741,-0.0841,-0.0857,-0.0861,-0.0864,0,-0.0099,-0.0087,-0.0127,-0.0166,-0.0186,-0.0263,-0.031,-0.0377,-0.045,-0.0547,-0.0576,-0.0716,-0.0789,-0.0891,-0.0809,-0.101,-0.0861,-0.0971,-0.107,-0.107,-0.1149,-0.0923,-0.0899,-0.0797,-0.0909,-0.0905,-0.0901,0,-0.0091,-0.0103,-0.0127,-0.0145,-0.0278,-0.0366,-0.0359,-0.0471,-0.0511,-0.0671,-0.075,-0.0822,-0.0934,-0.1006,-0.1178,-0.1124,-0.0948,-0.1299,-0.1303,-0.1217,-0.0865,-0.0978,-0.096,-0.1066,-0.1059,-0.1054,-0.0937,0,-0.0071,-0.0107,-0.0115,-0.0228,-0.0318,-0.0401,-0.057,-0.063,-0.0785,-0.0979,-0.1033,-0.1239,-0.1392,-0.1398,-0.1569,-0.1423,-0.1536,-0.1641,-0.1711,-0.1554,-0.1542,-0.1512,-0.1935,-0.194,-0.1944,-0.1947,0,0,-0.0093,-0.014,-0.0262,-0.0315,-0.043,-0.0644,-0.0713,-0.0866,-0.1235,-0.1295,-0.1407,-0.1685,-0.1767,-0.1788,-0.179,-0.1871,-0.1908,-0.1847,-0.1673,-0.1642,-0.1614,-0.1589,-0.1556,-0.1955,-0.1956,-0.1958,-0.1959,0,-0.0134,-0.0188,-0.0211,-0.0341,-0.0562,-0.0758,-0.0756,-0.1122,-0.1266,-0.1433,-0.1675,-0.1725,-0.1924,-0.2006,-0.2065,-0.1952,-0.1986,-0.1975,-0.1768,-0.1712,-0.1676,-0.1644,-0.1611,-0.1578,-0.1969,-0.1969,-0.1968,0,-0.0198,-0.0329,-0.0371,-0.0576,-0.0789,-0.0907,-0.1178,-0.1345,-0.1453,-0.1763,-0.1943,-0.2076,-0.2233,-0.2263,-0.2256,-0.2311,-0.2101,-0.22,-0.2182,-0.2111,-0.2057,-0.2017,-0.1981,-0.2427,-0.2428,-0.2428,0,0,-0.0242,-0.0281,-0.0569,-0.0624,-0.0696,-0.1077,-0.1235,-0.1434,-0.1703,-0.1823,-0.2012,-0.2167,-0.2248,-0.2276,-0.2366,-0.235,-0.2355,-0.2244,-0.2222,-0.2204,-0.2124,-0.2065,-0.2028,-0.243,-0.243,-0.243,0,0,-0.0328,-0.0588,-0.068,-0.0745,-0.0967,-0.1419,-0.1512,-0.1721,-0.1964,-0.1981,-0.2215,-0.2252,-0.2247,-0.2337,-0.2354,-0.2306,-0.2413,-0.2411,-0.2211,-0.2186,-0.2166,-0.2051,-0.2425,0,0,0,0,0,-0.055,-0.0528,-0.0604,-0.0658,-0.1086,-0.1341,-0.1425,-0.1775,-0.1909,-0.1938,-0.2184,-0.2186,-0.2428,-0.2449,-0.2458,-0.2296,-0.2448,-0.2445,-0.2442,-0.2182,-0.2155,-0.2132,0,0,0,0,0,0,-0.0573,-0.0624,-0.0612,-0.1024,-0.113,-0.1346,-0.162,-0.172,-0.191,-0.1948,-0.2172,-0.2194,-0.2342,-0.2443,-0.2452,-0.2294,-0.2422,-0.2447,-0.2444,-0.2442,-0.2173,-0.215,-0.2131,0,0,0,0,0,-0.0593,-0.0636,-0.1173,-0.1039,-0.1129,-0.159,-0.162,-0.1705,-0.187,-0.2101,-0.2143,-0.2108,-0.2339,-0.2353,-0.2448,-0.2287,-0.2416,-0.2419,-0.2445,-0.2443,-0.2441,-0.2162,0,0,0,0,0,0,-0.0609,-0.0787,-0.1207,-0.1258,-0.1025,-0.1589,-0.1665,-0.169,-0.2011,-0.2065,-0.2037,-0.2059,-0.2338,-0.2348,-0.2358,-0.2278,-0.2411,-0.2414,-0.2416,-0.2444,-0.2442,-0.244,0,0,0,0,0,0,-0.0769,-0.0824,-0.1234,-0.1195,-0.1246,-0.1585,-0.1651,-0.1673,-0.1994,-0.1927,-0.1962,-0.204,-0.2165,-0.2345,-0.2352,-0.2395,-0.2407,-0.241,-0.2412,-0.2414,-0.2442,-0.2441,0,0,0,0,0,0,-0.0804,-0.0853,-0.1185,-0.1224,-0.1269,-0.188,-0.1603,-0.1928,-0.225,-0.1896,-0.2255,-0.2257,-0.2145,-0.217,-0.2349,-0.2387,-0.2393,-0.2407,-0.2409,-0.2411,-0.2412,0,0,0,0,0,0,0,-0.0833,-0.0353,-0.0888,-0.1248,-0.1288,-0.1728,-0.1743,-0.1759,-0.2251,-0.2253,-0.2254,-0.2256,-0.2388,-0.2392,-0.2395,-0.2381,0,0,-0.2407,-0.2408,0,0,0,0,0,0,0,0,-0.0347,-0.0351,-0.089,-0.0899,-0.0909,-0.173,-0.1743,-0.1755,-0.2251,-0.2253,-0.2254,-0.2255,-0.2389,-0.2392,-0.2395,0,0,0,0,0,0,0,0,0,0,0,0,0,0,0,-0.0891,-0.0899,0,-0.1732,-0.1742,-0.1753,-0.2251,-0.2252,-0.2254,-0.2255,-0.239,-0.2392,-0.2395,0,0,0,0,0,0,0,0,0,0,0,0,0,0,0,0,0,0,0,0,0,0,0,0,0,0,0,0,0,0,0,0,0,0,0,0,0,0,0,0,0,0,0,0,0,0,0,0,0,0,0,0,0,0,0,0,0,0,0,0,0,0,0,0,0,0,0,0,0]}],[{"header":{"parameterUnit":"kt","parameterCategory":2,"dx":1,"dy":1,"la1":30.253999710083008,"la2":30.299108505249023,"lo1":-89.0895004272461,"lo2":-89.04439544677734,"nx":28,"ny":28,"refTime":"2022-09-30T21:00:00:Z","depth":"0","parameterNumber":3,"parameterNumberName":"V-component_of_CURRENTS"},"data":[-0.329,-0.2967,-0.2806,-0.2421,-0.2239,-0.1994,-0.1887,-0.1715,-0.1571,-0.1331,-0.1148,-0.1047,-0.064,0.0269,0.07,0.0763,0.0999,0.102,0.1161,0.0875,0.0859,0.0845,0.086,0.1001,0.1002,0.1517,0.1522,0.1526,-0.3442,-0.3221,-0.2958,-0.2521,-0.2301,-0.2241,-0.2021,-0.1873,-0.1711,-0.1551,-0.1399,-0.1031,-0.0584,-0.019,0.0275,0.047,0.0584,0.0588,0.0726,0.0799,0.0394,0.039,0.0433,0.0433,0.0433,0.0432,0.0432,0.0432,-0.3607,-0.3403,-0.2976,-0.2706,-0.2486,-0.2272,-0.2134,-0.1961,-0.1744,-0.1537,-0.1448,-0.1223,-0.0814,-0.028,-0.0085,0.0234,0.0326,0.0327,0.045,0.0529,0.0626,0.0145,0.0197,0.0197,0.0197,0.0197,0.0197,0,-0.368,-0.3443,-0.3091,-0.2841,-0.2607,-0.2348,-0.2156,-0.2057,-0.1725,-0.1611,-0.1416,-0.1283,-0.0877,-0.0509,-0.0178,0.0003,0.0289,0.0167,0.0274,0.0447,0.0509,0.0635,0.0201,0.0226,0.0226,0.0226,0.0226,0.0226,-0.3764,-0.3538,-0.3045,-0.2876,-0.2662,-0.2431,-0.2278,-0.1981,-0.1799,-0.1511,-0.1414,-0.1172,-0.0981,-0.0499,-0.02,0.0087,0.0231,0.0166,0.0214,0.0274,0.0425,0.0512,0.0591,0.0228,0.0228,0.0228,0.0227,0,-0.381,-0.3527,-0.3112,-0.2709,-0.265,-0.2458,-0.2084,-0.1927,-0.1722,-0.1497,-0.1438,-0.1165,-0.0873,-0.0612,-0.024,-0.0127,0.0224,0.0169,0.0118,0.0155,0.0295,0.0399,0.0573,0.0673,0.0232,0.0232,0.0231,0,-0.3823,-0.3547,-0.319,-0.2914,-0.2705,-0.231,-0.2074,-0.1901,-0.1645,-0.1443,-0.1279,-0.1123,-0.0773,-0.0576,-0.0338,-0.0051,-0.0037,0.0157,0.0202,0.0199,0.0196,0.0269,0.0371,0.0226,0.0225,0.0225,0.0225,0,-0.3989,-0.3432,-0.3114,-0.2873,-0.2342,-0.2213,-0.2025,-0.1756,-0.1546,-0.1345,-0.1249,-0.098,-0.0769,-0.0592,-0.0238,-0.0218,0.0086,0.0156,0.0194,0.0193,0.018,0.0176,0.0314,0.0224,0.0224,0.0224,0.0224,0,-0.3859,-0.3579,-0.3135,-0.2626,-0.2469,-0.225,-0.1944,-0.1695,-0.1471,-0.1308,-0.1124,-0.0947,-0.0635,-0.0552,-0.0182,-0.0214,-0.0096,0.01,0.0105,0.0052,0.0114,0.0047,0.018,0.0279,0.0175,0.0175,0.0174,0,-0.4039,-0.3567,-0.3211,-0.2777,-0.2472,-0.2151,-0.1963,-0.1687,-0.1484,-0.1301,-0.1018,-0.0737,-0.0569,-0.0411,-0.0279,0.0051,0.0088,0.0064,0.0127,0.0128,0.001,0.0147,0.0145,0.0173,0.0168,0.0169,0.0169,0,-0.4092,-0.3451,-0.3363,-0.3095,-0.2542,-0.2309,-0.2098,-0.1756,-0.165,-0.1316,-0.1133,-0.0655,-0.0568,-0.0398,-0.0157,-0.0027,0.0083,0.0019,0.0021,-0.0069,0.0161,0.0141,0.0143,0.0129,0.013,0.013,0.0165,0,-0.3846,-0.3513,-0.3399,-0.2898,-0.2648,-0.2385,-0.1982,-0.1856,-0.1657,-0.1405,-0.1098,-0.0771,-0.0504,-0.0322,-0.0149,0.0038,0.0012,0.0052,-0.0075,0.006,0.0071,0.0075,0.0014,0.0013,0.0013,0.0012,0,0,-0.3952,-0.3562,-0.3251,-0.2946,-0.2678,-0.2399,-0.2133,-0.1931,-0.1495,-0.1385,-0.131,-0.0786,-0.0595,-0.0287,-0.0138,-0.0038,-0.0046,-0.016,0.0044,0.0047,0.0051,0.0063,0.0067,0.001,0.001,0.001,0.001,0,-0.3783,-0.3486,-0.3314,-0.3002,-0.2572,-0.233,-0.2266,-0.1812,-0.1655,-0.1366,-0.1154,-0.0926,-0.0643,-0.0423,-0.0283,-0.0065,-0.0146,0.0008,-0.0026,0.0037,0.0042,0.0046,0.0059,0.0064,0.0008,0.0008,0.0008,0,-0.3674,-0.3329,-0.3217,-0.2704,-0.2455,-0.2176,-0.2001,-0.1758,-0.1554,-0.1395,-0.1154,-0.0965,-0.0734,-0.0504,-0.0418,-0.0465,-0.0259,-0.0277,-0.0266,-0.0357,-0.0301,-0.0291,-0.0283,-0.0422,-0.0425,-0.0427,0,0,-0.3547,-0.333,-0.2809,-0.2626,-0.2458,-0.2087,-0.1932,-0.1732,-0.1458,-0.1369,-0.1206,-0.1013,-0.0797,-0.0726,-0.0558,-0.0418,-0.0449,-0.0338,-0.0317,-0.0301,-0.0381,-0.0321,-0.0309,-0.0435,-0.0435,-0.0436,0,0,-0.3506,-0.2935,-0.2779,-0.2494,-0.2188,-0.1751,-0.1678,-0.1499,-0.1299,-0.1299,-0.1129,-0.1091,-0.0898,-0.0842,-0.096,-0.0608,-0.0676,-0.0652,-0.0689,-0.0663,-0.0642,-0.0779,-0.0979,0,0,0,0,0,-0.3109,-0.2991,-0.2854,-0.2745,-0.2152,-0.1804,-0.1737,-0.1477,-0.1425,-0.1381,-0.1179,-0.1215,-0.0807,-0.091,-0.0891,-0.0822,-0.0547,-0.0527,-0.0509,-0.0518,-0.049,-0.0467,0,0,0,0,0,0,-0.3062,-0.293,-0.2856,-0.2404,-0.2266,-0.1807,-0.1674,-0.1604,-0.1426,-0.1405,-0.1231,-0.121,-0.1108,-0.0922,-0.0905,-0.0839,-0.0985,-0.054,-0.0523,-0.0508,-0.0509,-0.0486,-0.0467,0,0,0,0,0,-0.3025,-0.2918,-0.2021,-0.2407,-0.2288,-0.1895,-0.1678,-0.1618,-0.1505,-0.1285,-0.1253,-0.1315,-0.111,-0.1089,-0.0912,-0.0846,-0.0998,-0.0991,-0.0529,-0.0515,-0.0503,-0.0498,0,0,0,0,0,0,-0.2996,-0.2914,-0.1993,-0.1949,-0.2424,-0.192,-0.1829,-0.1632,-0.1399,-0.1353,-0.1368,-0.1356,-0.1111,-0.1094,-0.1078,-0.0847,-0.1008,-0.1001,-0.0997,-0.0518,-0.0508,-0.0499,0,0,0,0,0,0,-0.2967,-0.2879,-0.1972,-0.2007,-0.1965,-0.1944,-0.1862,-0.179,-0.1411,-0.1506,-0.1479,-0.1367,-0.1206,-0.1098,-0.1085,-0.0978,-0.1016,-0.101,-0.1005,-0.1002,-0.051,-0.0502,0,0,0,0,0,0,-0.2926,-0.285,-0.2019,-0.1987,-0.1951,-0.1454,-0.1892,-0.1359,-0.1244,-0.1531,-0.1243,-0.1243,-0.1218,-0.1197,-0.1091,-0.0989,-0.0981,-0.1016,-0.1011,-0.1008,-0.1006,0,0,0,0,0,0,0,-0.2893,-0.3449,-0.2227,-0.1971,-0.1939,-0.1533,-0.1523,-0.1514,-0.1244,-0.1244,-0.1243,-0.1243,-0.1054,-0.1047,-0.1039,-0.0998,0,0,-0.1017,-0.1013,0,0,0,0,0,0,0,0,-0.3476,-0.3456,-0.2225,-0.2214,-0.2203,-0.1531,-0.1524,-0.1516,-0.1244,-0.1244,-0.1243,-0.1243,-0.1052,-0.1046,-0.104,0,0,0,0,0,0,0,0,0,0,0,0,0,0,0,-0.2224,-0.2215,0,-0.153,-0.1524,-0.1518,-0.1244,-0.1244,-0.1243,-0.1243,-0.1051,-0.1046,-0.1041,0,0,0,0,0,0,0,0,0,0,0,0,0,0,0,0,0,0,0,0,0,0,0,0,0,0,0,0,0,0,0,0,0,0,0,0,0,0,0,0,0,0,0,0,0,0,0,0,0,0,0,0,0,0,0,0,0,0,0,0,0,0,0,0,0,0,0,0,0]}]],[[{"header":{"parameterUnit":"kt","parameterCategory":2,"dx":1,"dy":1,"la1":30.253999710083008,"la2":30.299108505249023,"lo1":-89.0895004272461,"lo2":-89.04439544677734,"nx":28,"ny":28,"refTime":"2022-09-30T21:00:00:Z","depth":"2","parameterNumber":2,"parameterNumberName":"U-component_of_CURRENTS"},"data":[-0.1342,-0.1137,-0.1059,-0.0939,-0.0875,-0.0689,-0.0626,-0.0499,-0.0483,-0.0489,-0.0562,-0.057,-0.0724,-0.0724,-0.0716,-0.0721,-0.0645,-0.0678,-0.0834,-0.0709,-0.0699,-0.0737,-0.0835,0,0,0,0,0,-0.138,-0.1256,-0.1148,-0.0966,-0.0945,-0.0878,-0.0795,-0.0716,-0.061,-0.0612,-0.0545,-0.0666,-0.0688,-0.0672,-0.0728,-0.0794,-0.0705,-0.0779,-0.068,-0.0675,-0.067,-0.073,-0.0724,-0.0722,-0.0721,-0.0719,0,0,-0.1491,-0.1384,-0.1192,-0.1066,-0.1001,-0.0933,-0.0826,-0.0795,-0.0719,-0.0693,-0.0682,-0.0689,-0.067,-0.0706,-0.0703,-0.0732,-0.0731,-0.081,-0.0802,-0.0794,-0.0867,-0.0908,-0.0896,-0.0896,-0.0896,-0.0896,-0.0896,0,-0.1523,-0.1434,-0.1344,-0.1164,-0.1045,-0.0996,-0.0863,-0.0842,-0.0815,-0.0836,-0.0781,-0.0736,-0.0657,-0.0645,-0.0707,-0.0713,-0.0844,-0.0814,-0.0783,-0.0708,-0.074,-0.0833,-0.0847,-0.0687,-0.0685,-0.0685,-0.0684,-0.0684,-0.1537,-0.1448,-0.1274,-0.1241,-0.1183,-0.1049,-0.0931,-0.084,-0.0877,-0.0881,-0.083,-0.076,-0.0695,-0.074,-0.074,-0.0747,-0.0698,-0.079,-0.0749,-0.0743,-0.0837,-0.0854,-0.0871,-0.0672,-0.0674,-0.0675,-0.0676,0,-0.1581,-0.1507,-0.1409,-0.1279,-0.1203,-0.1088,-0.0982,-0.0954,-0.0937,-0.0892,-0.0859,-0.0775,-0.077,-0.076,-0.0729,-0.0742,-0.0796,-0.0743,-0.0753,-0.083,-0.0845,-0.0866,-0.0681,-0.0684,-0.0687,-0.0689,-0.0691,0,-0.1668,-0.1605,-0.1495,-0.1442,-0.1269,-0.1228,-0.112,-0.1048,-0.0953,-0.0887,-0.0885,-0.0837,-0.075,-0.0747,-0.077,-0.0772,-0.0719,-0.0729,-0.0805,-0.0808,-0.0825,-0.0877,-0.0909,-0.0608,-0.0609,-0.061,-0.0611,0,-0.1851,-0.1713,-0.1574,-0.1524,-0.141,-0.1333,-0.1225,-0.1121,-0.1058,-0.0972,-0.0992,-0.0822,-0.0763,-0.0728,-0.0804,-0.083,-0.0801,-0.0859,-0.0845,-0.0857,-0.0891,-0.0915,-0.0612,-0.0612,-0.0613,-0.0613,-0.0613,0,-0.1964,-0.1879,-0.1736,-0.1588,-0.1535,-0.1454,-0.1287,-0.122,-0.1053,-0.1022,-0.0906,-0.0903,-0.0794,-0.0816,-0.0776,-0.0885,-0.0845,-0.0923,-0.0923,-0.1108,-0.1314,-0.1187,-0.0982,-0.1017,-0.102,-0.1023,-0.1026,0,-0.2044,-0.1894,-0.1869,-0.1726,-0.1608,-0.1513,-0.1397,-0.128,-0.1225,-0.1144,-0.0998,-0.0997,-0.0986,-0.1057,-0.0959,-0.1172,-0.1018,-0.1111,-0.1229,-0.1229,-0.1336,-0.1138,-0.113,-0.1026,-0.1063,-0.1059,-0.1057,0,-0.2085,-0.1966,-0.1913,-0.1838,-0.1641,-0.1595,-0.1481,-0.1327,-0.1307,-0.1201,-0.1144,-0.1108,-0.1111,-0.1152,-0.1263,-0.1236,-0.1087,-0.1409,-0.1414,-0.1333,-0.1046,-0.1178,-0.1165,-0.1221,-0.1216,-0.1212,-0.1086,0,-0.217,-0.2001,-0.1945,-0.1789,-0.1724,-0.1609,-0.1531,-0.1473,-0.1446,-0.1441,-0.1355,-0.1445,-0.1499,-0.1491,-0.163,-0.1495,-0.1598,-0.1704,-0.1785,-0.1639,-0.1614,-0.159,-0.1949,-0.1954,-0.1958,-0.1961,0,0,-0.2153,-0.2015,-0.1911,-0.184,-0.1776,-0.1706,-0.1656,-0.1631,-0.1709,-0.1688,-0.1732,-0.1846,-0.1881,-0.1862,-0.1839,-0.1894,-0.194,-0.1888,-0.1739,-0.1714,-0.1691,-0.1656,-0.1628,-0.1968,-0.1969,-0.1971,-0.1972,0,-0.2206,-0.1982,-0.1925,-0.1855,-0.1766,-0.1771,-0.1722,-0.1779,-0.1775,-0.179,-0.1961,-0.1952,-0.2036,-0.2068,-0.2103,-0.1971,-0.2016,-0.1984,-0.1805,-0.1774,-0.1744,-0.1718,-0.1677,-0.1649,-0.1981,-0.1981,-0.198,0,-0.2225,-0.2121,-0.2075,-0.1895,-0.1905,-0.1872,-0.1975,-0.1943,-0.1925,-0.2147,-0.2175,-0.2253,-0.2357,-0.2324,-0.2296,-0.2353,-0.2133,-0.2217,-0.22,-0.2148,-0.2121,-0.2087,-0.2057,-0.2439,-0.244,-0.244,0,0,-0.2235,-0.2113,-0.2049,-0.1909,-0.1868,-0.1961,-0.1977,-0.2025,-0.2126,-0.2171,-0.2255,-0.2347,-0.2382,-0.2383,-0.2415,-0.2371,-0.2386,-0.2263,-0.2242,-0.2223,-0.2162,-0.213,-0.2098,-0.2443,-0.2443,-0.2443,0,0,-0.2321,-0.2227,-0.2174,-0.2005,-0.1966,-0.2106,-0.2094,-0.2167,-0.2263,-0.2296,-0.2432,-0.2449,-0.2391,-0.2457,-0.2485,-0.2368,-0.2472,-0.2468,-0.229,-0.2265,-0.2244,-0.2161,-0.2526,0,0,0,0,0,-0.2354,-0.222,-0.2167,-0.2137,-0.2099,-0.2083,-0.2106,-0.2217,-0.2317,-0.2258,-0.2425,-0.2418,-0.2518,-0.2547,-0.2548,-0.2389,-0.2469,-0.2465,-0.246,-0.2222,-0.2194,-0.2171,0,0,0,0,0,0,-0.2342,-0.2296,-0.2178,-0.2277,-0.2274,-0.2092,-0.2276,-0.231,-0.232,-0.2334,-0.2415,-0.2423,-0.2511,-0.2545,-0.2547,-0.2392,-0.2525,-0.2467,-0.2463,-0.246,-0.2212,-0.219,-0.2171,0,0,0,0,0,-0.2334,-0.2298,-0.2141,-0.2292,-0.2288,-0.2405,-0.2278,-0.2306,-0.2329,-0.2424,-0.2439,-0.2391,-0.251,-0.2512,-0.2546,-0.2388,-0.2524,-0.2525,-0.2465,-0.2462,-0.2459,-0.2201,0,0,0,0,0,0,-0.2329,-0.2416,-0.2152,-0.2165,-0.2284,-0.2419,-0.2419,-0.2302,-0.242,-0.2435,-0.2407,-0.2415,-0.251,-0.2512,-0.2513,-0.2382,-0.2523,-0.2524,-0.2524,-0.2462,-0.246,-0.2458,0,0,0,0,0,0,-0.2436,-0.2423,-0.216,-0.2142,-0.2156,-0.2431,-0.2429,-0.2428,-0.2415,-0.24,-0.241,-0.2407,-0.2436,-0.2511,-0.2512,-0.2519,-0.2523,-0.2523,-0.2523,-0.2524,-0.246,-0.2458,0,0,0,0,0,0,-0.2438,-0.2428,-0.2141,-0.2151,-0.2164,-0.2345,-0.2437,-0.2355,-0.2494,-0.2391,-0.2495,-0.2495,-0.2428,-0.2436,-0.2512,-0.2518,-0.2519,-0.2523,-0.2523,-0.2523,-0.2523,0,0,0,0,0,0,0,-0.244,-0.2412,-0.2043,-0.2159,-0.2171,-0.2287,-0.2293,-0.23,-0.2494,-0.2494,-0.2495,-0.2495,-0.2519,-0.252,-0.2521,-0.2517,0,0,-0.2523,-0.2523,0,0,0,0,0,0,0,0,-0.2426,-0.2415,-0.2043,-0.2045,-0.2046,-0.2288,-0.2293,-0.2298,-0.2494,-0.2494,-0.2495,-0.2495,-0.252,-0.252,-0.2521,0,0,0,0,0,0,0,0,0,0,0,0,0,0,0,-0.2044,-0.2045,0,-0.2289,-0.2293,-0.2297,-0.2494,-0.2494,-0.2495,-0.2495,-0.252,-0.252,-0.252,0,0,0,0,0,0,0,0,0,0,0,0,0,0,0,0,0,0,0,0,0,0,0,0,0,0,0,0,0,0,0,0,0,0,0,0,0,0,0,0,0,0,0,0,0,0,0,0,0,0,0,0,0,0,0,0,0,0,0,0,0,0,0,0,0,0,0,0,0]}],[{"header":{"parameterUnit":"kt","parameterCategory":2,"dx":1,"dy":1,"la1":30.253999710083008,"la2":30.299108505249023,"lo1":-89.0895004272461,"lo2":-89.04439544677734,"nx":28,"ny":28,"refTime":"2022-09-30T21:00:00:Z","depth":"2","parameterNumber":3,"parameterNumberName":"V-component_of_CURRENTS"},"data":[-0.064,-0.0758,-0.0836,-0.0724,-0.0674,-0.064,-0.0651,-0.0606,-0.0486,-0.0335,-0.0158,-0.0083,0.0384,0.0623,0.082,0.0986,0.0864,0.0912,0.0933,0.0872,0.0855,0.1035,0.1035,0,0,0,0,0,-0.0716,-0.0791,-0.0745,-0.0773,-0.064,-0.0697,-0.0613,-0.0545,-0.0552,-0.0472,-0.0457,-0.0012,0.0304,0.0543,0.091,0.1061,0.0989,0.1026,0.1,0.0992,0.0982,0.0981,0.1081,0.1079,0.1077,0.1076,0,0,-0.0752,-0.0751,-0.0818,-0.0851,-0.0765,-0.0693,-0.0713,-0.0582,-0.0543,-0.0491,-0.0445,-0.0298,-0.0067,0.0466,0.0681,0.0876,0.0873,0.0994,0.0987,0.0979,0.0983,0.0913,0.1081,0.1081,0.108,0.1079,0.1079,0,-0.0822,-0.0897,-0.0823,-0.0833,-0.084,-0.0712,-0.0735,-0.0706,-0.0585,-0.0516,-0.0477,-0.0448,-0.0194,0.0156,0.0529,0.0714,0.089,0.0936,0.082,0.0883,0.0805,0.0855,0.084,0.0959,0.0958,0.0957,0.0956,0.0955,-0.099,-0.0947,-0.0887,-0.0819,-0.0739,-0.0726,-0.0787,-0.0786,-0.0648,-0.0579,-0.0547,-0.0447,-0.0358,0.0115,0.0402,0.0725,0.0697,0.0901,0.0849,0.0643,0.0696,0.0686,0.0676,0.0938,0.094,0.0942,0.0943,0,-0.0992,-0.0903,-0.0738,-0.0584,-0.0647,-0.0673,-0.0672,-0.0621,-0.0641,-0.0607,-0.0598,-0.0575,-0.0309,-0.0082,0.0292,0.0391,0.0722,0.0747,0.0737,0.0798,0.0673,0.0665,0.0771,0.0773,0.0774,0.0775,0.0776,0,-0.0837,-0.073,-0.0552,-0.0516,-0.0542,-0.0496,-0.0536,-0.0621,-0.064,-0.063,-0.0618,-0.0539,-0.0321,-0.0116,0.0127,0.042,0.0452,0.0563,0.0629,0.0673,0.0676,0.0568,0.0562,0.0621,0.062,0.062,0.062,0,-0.0696,-0.0521,-0.0477,-0.0488,-0.0385,-0.0425,-0.0479,-0.0597,-0.0622,-0.0633,-0.0594,-0.0475,-0.0357,-0.016,0.0173,0.0148,0.0536,0.0554,0.0598,0.0598,0.0679,0.0684,0.0619,0.0619,0.0619,0.0619,0.0619,0,-0.0556,-0.045,-0.0364,-0.0382,-0.0377,-0.0377,-0.0526,-0.0526,-0.0639,-0.0646,-0.0603,-0.0554,-0.0309,-0.0275,0.0099,0.0063,0.0168,0.038,0.0388,0.0409,0.0486,0.0549,0.0646,0.0472,0.0471,0.047,0.0469,0,-0.0518,-0.0438,-0.0494,-0.0437,-0.0415,-0.0547,-0.0589,-0.0648,-0.0689,-0.0706,-0.0603,-0.0445,-0.0355,-0.0193,-0.008,0.0294,0.0321,0.0272,0.0442,0.0444,0.0426,0.0507,0.057,0.0624,0.0455,0.0457,0.0458,0,-0.0641,-0.0671,-0.0719,-0.0702,-0.0814,-0.0779,-0.0791,-0.0809,-0.0811,-0.077,-0.0731,-0.0357,-0.035,-0.0187,0.0033,0.0185,0.0299,0.0254,0.0261,0.0228,0.0459,0.0483,0.0494,0.0392,0.0394,0.0395,0.0446,0,-0.0569,-0.0736,-0.0741,-0.0836,-0.0844,-0.0861,-0.0868,-0.0896,-0.0912,-0.0876,-0.0738,-0.0474,-0.0255,-0.0106,0.0071,0.0251,0.0237,0.0307,0.0277,0.0334,0.0351,0.036,0.026,0.0261,0.0261,0.0261,0,0,-0.0667,-0.087,-0.1088,-0.1035,-0.1051,-0.1116,-0.102,-0.0999,-0.0866,-0.0864,-0.0843,-0.0422,-0.0246,0.0051,0.0138,0.0218,0.0239,0.0165,0.0317,0.0323,0.0329,0.0346,0.0354,0.0261,0.0261,0.0261,0.0261,0,-0.0678,-0.1063,-0.1125,-0.1154,-0.1137,-0.1079,-0.1105,-0.0973,-0.096,-0.0846,-0.0641,-0.047,-0.0254,-0.0036,0.0107,0.0209,0.0226,0.0257,0.0209,0.0317,0.0322,0.0328,0.0346,0.0353,0.0262,0.0262,0.0262,0,-0.072,-0.0869,-0.1037,-0.1195,-0.1127,-0.1027,-0.0989,-0.0932,-0.0875,-0.0701,-0.058,-0.0414,-0.0184,-0.0009,0.0048,0.0038,0.0199,0.0173,0.0175,0.0114,0.0222,0.023,0.0237,0.014,0.0139,0.0139,0,0,-0.0677,-0.0963,-0.0984,-0.1181,-0.1156,-0.1026,-0.0962,-0.09,-0.0755,-0.0696,-0.0581,-0.0412,-0.0216,-0.0156,-0.0013,0.0096,0.011,0.0153,0.0159,0.0163,0.0106,0.0214,0.0222,0.0135,0.0135,0.0135,0,0,-0.0565,-0.0795,-0.0902,-0.112,-0.1091,-0.0878,-0.0821,-0.0765,-0.0627,-0.0605,-0.0441,-0.0405,-0.0283,-0.0216,-0.0272,-0.0016,-0.0032,-0.0019,-0.0067,-0.0059,-0.0053,-0.0152,-0.02,0,0,0,0,0,-0.0643,-0.0801,-0.0905,-0.0943,-0.0998,-0.0905,-0.0865,-0.0716,-0.0664,-0.0676,-0.0502,-0.0476,-0.017,-0.0216,-0.019,-0.0136,0.0092,0.01,0.0107,0.0073,0.0081,0.0087,0,0,0,0,0,0,-0.0657,-0.0725,-0.0888,-0.0746,-0.0746,-0.0901,-0.0761,-0.0717,-0.0663,-0.0651,-0.049,-0.0468,-0.034,-0.0226,-0.0203,-0.0153,-0.0208,0.0095,0.0101,0.0107,0.0075,0.0082,0.0087,0,0,0,0,0,-0.0667,-0.0719,-0.0958,-0.0723,-0.0726,-0.0546,-0.0763,-0.0725,-0.0683,-0.0494,-0.0468,-0.0592,-0.0341,-0.0317,-0.0212,-0.0165,-0.0223,-0.0215,0.0099,0.0104,0.0109,0.0079,0,0,0,0,0,0,-0.0673,-0.0574,-0.0941,-0.0917,-0.0749,-0.0528,-0.0534,-0.0734,-0.0529,-0.05,-0.0587,-0.058,-0.0341,-0.0322,-0.0304,-0.0172,-0.0236,-0.0227,-0.0222,0.0103,0.0107,0.0111,0,0,0,0,0,0,-0.054,-0.0562,-0.0928,-0.0974,-0.0952,-0.0513,-0.0521,-0.0435,-0.0533,-0.0631,-0.0618,-0.0587,-0.0424,-0.0325,-0.0311,-0.0168,-0.0246,-0.0238,-0.0232,-0.0228,0.0106,0.011,0,0,0,0,0,0,-0.0537,-0.0553,-0.0978,-0.0962,-0.0943,-0.0649,-0.0424,-0.0528,-0.0483,-0.0645,-0.0487,-0.0489,-0.0434,-0.0413,-0.0316,-0.0179,-0.0171,-0.0246,-0.024,-0.0236,-0.0233,0,0,0,0,0,0,0,-0.0533,-0.0585,-0.11,-0.0952,-0.0935,-0.0695,-0.0686,-0.0678,-0.0484,-0.0485,-0.0487,-0.0488,-0.0293,-0.0284,-0.0275,-0.0189,0,0,-0.0246,-0.0242,0,0,0,0,0,0,0,0,-0.0562,-0.0579,-0.1099,-0.1095,-0.1091,-0.0693,-0.0687,-0.068,-0.0484,-0.0485,-0.0486,-0.0487,-0.0291,-0.0283,-0.0276,0,0,0,0,0,0,0,0,0,0,0,0,0,0,0,-0.1099,-0.1095,0,-0.0692,-0.0687,-0.0682,-0.0484,-0.0485,-0.0486,-0.0487,-0.0289,-0.0283,-0.0276,0,0,0,0,0,0,0,0,0,0,0,0,0,0,0,0,0,0,0,0,0,0,0,0,0,0,0,0,0,0,0,0,0,0,0,0,0,0,0,0,0,0,0,0,0,0,0,0,0,0,0,0,0,0,0,0,0,0,0,0,0,0,0,0,0,0,0,0,0]}]],[[{"header":{"parameterUnit":"kt","parameterCategory":2,"dx":1,"dy":1,"la1":30.253999710083008,"la2":30.299108505249023,"lo1":-89.0895004272461,"lo2":-89.04439544677734,"nx":28,"ny":28,"refTime":"2022-09-30T21:00:00:Z","depth":"4","parameterNumber":2,"parameterNumberName":"U-component_of_CURRENTS"},"data":[-0.123,-0.1254,-0.1254,-0.1141,-0.1097,-0.1063,-0.1084,-0.1169,-0.1122,-0.1313,-0.1318,-0.1475,-0.1511,-0.1603,-0.1569,-0.1595,-0.1781,-0.1826,-0.1821,-0.2241,-0.2275,-0.2305,-0.2253,0,0,0,0,0,-0.1307,-0.1293,-0.1302,-0.1335,-0.1346,-0.1359,-0.1393,-0.148,-0.1652,-0.1485,-0.1672,-0.1578,-0.1602,-0.1674,-0.1605,-0.1817,-0.203,-0.1734,-0.2083,-0.2262,-0.23,-0.2237,0,0,0,0,0,0,-0.1424,-0.1431,-0.1528,-0.1556,-0.1591,-0.1526,-0.1614,-0.1581,-0.1678,-0.1878,-0.1783,-0.1883,-0.2065,-0.2049,-0.1988,-0.1997,-0.2008,-0.2031,-0.2078,-0.2116,-0.2024,-0.1863,-0.1513,0,0,0,0,0,-0.1502,-0.163,-0.1697,-0.1733,-0.1794,-0.1839,-0.1896,-0.1923,-0.2134,-0.2322,-0.2218,-0.2246,-0.2197,-0.2279,-0.2291,-0.2242,-0.2654,-0.2504,-0.2526,-0.2609,-0.2528,-0.2518,-0.2538,-0.2443,-0.2448,-0.2451,-0.2453,0,-0.162,-0.1663,-0.1868,-0.1898,-0.1994,-0.2134,-0.2166,-0.2429,-0.2453,-0.263,-0.2561,-0.2658,-0.2721,-0.2523,-0.2681,-0.264,-0.2612,-0.2601,-0.2689,-0.2589,-0.2568,-0.2579,-0.2588,-0.2483,-0.2481,-0.2478,-0.2476,0,-0.1656,-0.18,-0.191,-0.2092,-0.2141,-0.2233,-0.2446,-0.2509,-0.2744,-0.2801,-0.2859,-0.3055,-0.3007,-0.3105,-0.3129,-0.3071,-0.2955,-0.2846,-0.3112,-0.3098,-0.2645,-0.2642,-0.2533,-0.2522,-0.2513,-0.2505,-0.2498,0,-0.1758,-0.1844,-0.203,-0.2061,-0.2179,-0.2333,-0.2503,-0.263,-0.2829,-0.286,-0.3096,-0.3104,-0.3335,-0.3319,-0.3293,-0.3107,-0.3282,-0.2966,-0.293,-0.3255,-0.325,-0.3155,-0.3138,-0.331,-0.331,-0.3311,-0.3311,0,-0.1794,-0.1945,-0.2062,-0.2098,-0.2258,-0.2366,-0.2464,-0.2624,-0.2711,-0.2943,-0.3026,-0.3208,-0.3294,-0.3325,-0.3267,-0.3306,-0.3248,-0.3298,-0.2989,-0.2966,-0.3152,-0.3134,-0.3312,-0.3312,-0.3312,-0.3313,-0.3313,0,-0.1882,-0.1944,-0.2058,-0.2216,-0.226,-0.2322,-0.2508,-0.2581,-0.2733,-0.2853,-0.3024,-0.3079,-0.3194,-0.3206,-0.325,-0.3264,-0.3248,-0.3212,-0.3211,-0.2828,-0.2768,-0.2917,-0.314,-0.314,-0.3139,-0.3139,-0.3138,0,-0.188,-0.1977,-0.2081,-0.217,-0.2207,-0.2312,-0.2383,-0.2457,-0.2576,-0.2698,-0.2806,-0.2913,-0.2927,-0.3049,-0.313,-0.3093,-0.3152,-0.3141,-0.3065,-0.3059,-0.2743,-0.2874,-0.3206,-0.313,-0.3131,-0.3132,-0.3132,0,-0.1865,-0.2029,-0.2052,-0.2097,-0.2192,-0.2223,-0.2312,-0.2383,-0.2463,-0.2564,-0.2693,-0.2795,-0.2878,-0.29,-0.2948,-0.3013,-0.3127,-0.2994,-0.2991,-0.2919,-0.3199,-0.2899,-0.2874,-0.3195,-0.3197,-0.3199,-0.3127,0,-0.1891,-0.197,-0.2027,-0.2102,-0.2137,-0.2199,-0.2233,-0.2289,-0.2374,-0.2385,-0.2533,-0.257,-0.2666,-0.2741,-0.2711,-0.2866,-0.2814,-0.2807,-0.2717,-0.2892,-0.2837,-0.2843,-0.271,-0.2705,-0.2701,-0.2698,0,0,-0.1841,-0.1936,-0.2002,-0.2043,-0.2084,-0.211,-0.215,-0.2149,-0.2172,-0.2217,-0.2255,-0.2376,-0.238,-0.2484,-0.2576,-0.2584,-0.2576,-0.2607,-0.2824,-0.284,-0.2853,-0.2809,-0.2818,-0.2692,-0.269,-0.2689,-0.2688,0,-0.1851,-0.193,-0.1995,-0.2007,-0.2071,-0.2067,-0.2099,-0.2121,-0.2138,-0.2191,-0.2161,-0.2251,-0.2304,-0.2325,-0.2343,-0.2524,-0.2463,-0.2607,-0.2744,-0.2793,-0.2813,-0.283,-0.2792,-0.2803,-0.2679,-0.2679,-0.268,0,-0.1803,-0.187,-0.1912,-0.1969,-0.1988,-0.2002,-0.198,-0.2033,-0.2043,-0.1974,-0.2022,-0.2041,-0.2034,-0.2138,-0.2186,-0.216,-0.2356,-0.2324,-0.2344,-0.2273,-0.2312,-0.2337,-0.236,-0.2056,-0.2054,-0.2053,0,0,-0.1797,-0.1882,-0.1905,-0.1968,-0.1994,-0.1977,-0.1979,-0.1976,-0.1975,-0.1968,-0.1959,-0.1984,-0.2001,-0.2048,-0.203,-0.2132,-0.2059,-0.2252,-0.2281,-0.2306,-0.225,-0.2294,-0.232,-0.2046,-0.2046,-0.2046,0,0,-0.1782,-0.1871,-0.1876,-0.195,-0.1953,-0.193,-0.1955,-0.1933,-0.1914,-0.1946,-0.1886,-0.1881,-0.1957,-0.1941,-0.186,-0.2084,-0.196,-0.1973,-0.2115,-0.215,-0.2179,-0.2107,-0.1797,0,0,0,0,0,-0.1816,-0.1871,-0.1875,-0.1892,-0.1921,-0.1931,-0.1922,-0.1903,-0.1913,-0.1909,-0.19,-0.1869,-0.1915,-0.1838,-0.183,-0.1984,-0.1963,-0.1978,-0.1992,-0.219,-0.2229,-0.2261,0,0,0,0,0,0,-0.1823,-0.1845,-0.1873,-0.1867,-0.1874,-0.1928,-0.19,-0.189,-0.1913,-0.1911,-0.1869,-0.1865,-0.1818,-0.1839,-0.1832,-0.1983,-0.1799,-0.1969,-0.1981,-0.1993,-0.2204,-0.2235,-0.2262,0,0,0,0,0,-0.1829,-0.1846,-0.1925,-0.1861,-0.1867,-0.1857,-0.19,-0.1892,-0.1893,-0.1856,-0.1851,-0.1896,-0.1817,-0.1813,-0.1835,-0.1989,-0.1803,-0.1801,-0.1977,-0.1987,-0.1996,-0.2219,0,0,0,0,0,0,-0.1833,-0.1779,-0.1922,-0.192,-0.1883,-0.1851,-0.1853,-0.1894,-0.1835,-0.1833,-0.1878,-0.1877,-0.1816,-0.1813,-0.181,-0.1999,-0.1807,-0.1804,-0.1803,-0.1984,-0.1992,-0.1999,0,0,0,0,0,0,-0.1771,-0.1778,-0.192,-0.1949,-0.1948,-0.1846,-0.1849,-0.1824,-0.1836,-0.1855,-0.1855,-0.1879,-0.1859,-0.1813,-0.181,-0.1766,-0.1809,-0.1807,-0.1805,-0.1805,-0.1991,-0.1997,0,0,0,0,0,0,-0.1771,-0.1776,-0.1947,-0.1947,-0.1946,-0.1896,-0.182,-0.1861,-0.1836,-0.1856,-0.184,-0.1842,-0.1861,-0.1856,-0.1811,-0.1767,-0.1766,-0.1809,-0.1808,-0.1807,-0.1806,0,0,0,0,0,0,0,-0.1771,-0.1768,-0.1966,-0.1945,-0.1944,-0.1901,-0.1898,-0.1894,-0.1837,-0.1838,-0.184,-0.1841,-0.1821,-0.1819,-0.1816,-0.1768,0,0,-0.1809,-0.1808,0,0,0,0,0,0,0,0,-0.1763,-0.1767,-0.1966,-0.1967,-0.1968,-0.1901,-0.1898,-0.1895,-0.1837,-0.1838,-0.184,-0.1841,-0.1821,-0.1819,-0.1817,0,0,0,0,0,0,0,0,0,0,0,0,0,0,0,-0.1966,-0.1967,0,-0.19,-0.1898,-0.1896,-0.1837,-0.1838,-0.1839,-0.184,-0.182,-0.1818,-0.1817,0,0,0,0,0,0,0,0,0,0,0,0,0,0,0,0,0,0,0,0,0,0,0,0,0,0,0,0,0,0,0,0,0,0,0,0,0,0,0,0,0,0,0,0,0,0,0,0,0,0,0,0,0,0,0,0,0,0,0,0,0,0,0,0,0,0,0,0,0]}],[{"header":{"parameterUnit":"kt","parameterCategory":2,"dx":1,"dy":1,"la1":30.253999710083008,"la2":30.299108505249023,"lo1":-89.0895004272461,"lo2":-89.04439544677734,"nx":28,"ny":28,"refTime":"2022-09-30T21:00:00:Z","depth":"4","parameterNumber":3,"parameterNumberName":"V-component_of_CURRENTS"},"data":[-0.0194,-0.0236,-0.0247,-0.0243,-0.0205,-0.0329,-0.0429,-0.0525,-0.0484,-0.0509,-0.0296,-0.0284,0.0104,-0.0083,0.0468,0.0525,0.0677,0.0876,0.088,0.1105,0.1107,0.1109,0.093,0,0,0,0,0,-0.0191,-0.0173,-0.0289,-0.0346,-0.0451,-0.0465,-0.07,-0.0799,-0.0842,-0.0728,-0.0714,-0.0445,-0.0054,0.0051,0.0377,0.034,0.0789,0.0715,0.0901,0.1106,0.1109,0.0934,0,0,0,0,0,0,-0.0191,-0.0247,-0.0294,-0.0373,-0.0503,-0.0595,-0.0718,-0.0747,-0.0789,-0.0777,-0.0732,-0.0498,-0.0365,0.0019,0.038,0.0702,0.0753,0.0843,0.0859,0.0864,0.0687,0.0573,0.066,0,0,0,0,0,-0.0147,-0.0161,-0.0265,-0.037,-0.0487,-0.0642,-0.0764,-0.0792,-0.0836,-0.0889,-0.0775,-0.0582,-0.0312,0.0052,0.0438,0.08,0.0956,0.1077,0.108,0.1014,0.0959,0.1022,0.1011,0.1117,0.1117,0.1117,0.1117,0,-0.0063,-0.0119,-0.0277,-0.0351,-0.0432,-0.0583,-0.0662,-0.0748,-0.0791,-0.0811,-0.0797,-0.0628,-0.0485,0.0052,0.0358,0.0865,0.0938,0.1081,0.1011,0.096,0.1026,0.1014,0.1003,0.1119,0.1119,0.1119,0.1118,0,-0.003,-0.0081,-0.0218,-0.0365,-0.0424,-0.0521,-0.0665,-0.0723,-0.0743,-0.0758,-0.0743,-0.0631,-0.0356,-0.0021,0.0387,0.0575,0.0885,0.0999,0.0928,0.1004,0.1013,0.1001,0.1122,0.1121,0.1121,0.112,0.112,0,-0.0005,-0.0101,-0.0208,-0.0279,-0.0413,-0.0473,-0.058,-0.0604,-0.0621,-0.0634,-0.0549,-0.0503,-0.0183,0.0044,0.0333,0.0646,0.0694,0.0836,0.0913,0.0866,0.0857,0.0938,0.0936,0.0939,0.0937,0.0935,0.0934,0,0.0068,-0.0087,-0.0177,-0.0231,-0.0347,-0.0407,-0.0458,-0.0482,-0.051,-0.0477,-0.0487,-0.0292,-0.0187,0.0062,0.0376,0.0375,0.0696,0.074,0.0873,0.0875,0.0927,0.0928,0.0932,0.0932,0.0931,0.093,0.093,0,0.01,0.0021,-0.011,-0.0214,-0.0246,-0.0323,-0.0386,-0.0429,-0.0403,-0.0381,-0.0297,-0.0198,-0.0047,0.0053,0.0356,0.0305,0.05,0.0637,0.0651,0.0642,0.0742,0.0861,0.0863,0.0861,0.0859,0.0857,0.0856,0,0.0215,0.0081,0.0055,-0.0079,-0.0149,-0.0143,-0.0193,-0.0214,-0.0201,-0.0207,-0.0067,-0.0036,0.0094,0.0153,0.0259,0.0431,0.0536,0.0443,0.0774,0.0783,0.0705,0.0691,0.059,0.0831,0.0834,0.0837,0.0838,0,0.0312,0.0228,0.0216,0.015,0.0099,0.0058,0.0008,-0.0025,-0.0049,-0.0014,-0.0029,0.0066,0.0159,0.0218,0.0349,0.0435,0.0511,0.0541,0.0549,0.061,0.0736,0.0674,0.0684,0.0586,0.0587,0.0587,0.0821,0,0.035,0.0306,0.0288,0.021,0.0178,0.014,0.0131,0.0115,0.0145,0.0159,0.0182,0.0285,0.0358,0.0393,0.0467,0.0518,0.0591,0.0639,0.0699,0.0677,0.079,0.0803,0.069,0.0693,0.0695,0.0696,0,0,0.0463,0.0396,0.0425,0.0354,0.0328,0.0384,0.0308,0.0323,0.0332,0.0336,0.0371,0.0456,0.0512,0.0572,0.0579,0.0615,0.0702,0.0634,0.0693,0.0692,0.0692,0.0796,0.0805,0.07,0.0701,0.0702,0.0702,0,0.047,0.0479,0.0439,0.0405,0.0397,0.0416,0.0398,0.0411,0.0433,0.04,0.0497,0.0538,0.0566,0.064,0.0683,0.0644,0.0739,0.0677,0.0618,0.0709,0.0705,0.0702,0.0802,0.081,0.0707,0.0707,0.0707,0,0.0503,0.0505,0.0498,0.047,0.0489,0.044,0.0524,0.053,0.0497,0.0607,0.0586,0.0642,0.0728,0.0738,0.0745,0.0789,0.0811,0.0781,0.0773,0.0744,0.084,0.0836,0.0832,0.0878,0.0878,0.0878,0,0,0.0508,0.0497,0.0487,0.0473,0.0467,0.0508,0.0521,0.055,0.059,0.0614,0.0642,0.0707,0.074,0.0768,0.0786,0.0792,0.086,0.0794,0.0786,0.0779,0.0746,0.0839,0.0835,0.0877,0.0877,0.0877,0,0,0.053,0.0532,0.053,0.0513,0.0502,0.0558,0.0575,0.06,0.064,0.0671,0.0733,0.0745,0.0734,0.0794,0.0779,0.0815,0.0861,0.0863,0.0754,0.0745,0.0737,0.0687,0.0839,0,0,0,0,0,0.0539,0.052,0.0516,0.0516,0.0544,0.0537,0.0547,0.062,0.0673,0.0655,0.0723,0.0754,0.0825,0.0812,0.0814,0.0789,0.0867,0.0869,0.0871,0.0729,0.0719,0.0711,0,0,0,0,0,0,0.0539,0.0535,0.0519,0.0565,0.0573,0.054,0.0636,0.0655,0.0676,0.0688,0.0745,0.0755,0.0805,0.0814,0.0814,0.079,0.0839,0.0868,0.0869,0.0871,0.0725,0.0717,0.071,0,0,0,0,0,0.0539,0.0536,0.0552,0.0569,0.0576,0.0658,0.0638,0.0655,0.0676,0.0738,0.0752,0.0729,0.0803,0.0807,0.0814,0.0789,0.0838,0.0838,0.0869,0.087,0.0871,0.0721,0,0,0,0,0,0,0.054,0.0567,0.0557,0.0564,0.0588,0.0663,0.0672,0.0654,0.0727,0.074,0.0725,0.0733,0.08,0.0804,0.0807,0.0787,0.0838,0.0838,0.0838,0.087,0.0871,0.0872,0,0,0,0,0,0,0.0569,0.0571,0.056,0.058,0.0591,0.0666,0.0674,0.0667,0.0725,0.071,0.0719,0.0727,0.0782,0.0802,0.0805,0.0792,0.0838,0.0838,0.0838,0.0838,0.0871,0.0871,0,0,0,0,0,0,0.0573,0.0575,0.0579,0.0587,0.0596,0.0682,0.0661,0.068,0.0763,0.0705,0.077,0.0773,0.0777,0.0782,0.0802,0.0788,0.0791,0.0838,0.0838,0.0838,0.0838,0,0,0,0,0,0,0,0.0575,0.053,0.0512,0.0593,0.0601,0.0627,0.0629,0.0632,0.0764,0.0766,0.0769,0.0772,0.0837,0.0837,0.0837,0.0785,0,0,0.0838,0.0838,0,0,0,0,0,0,0,0,0.0533,0.0531,0.0512,0.0513,0.0514,0.0628,0.0629,0.0631,0.0764,0.0766,0.0769,0.0771,0.0837,0.0837,0.0837,0,0,0,0,0,0,0,0,0,0,0,0,0,0,0,0.0512,0.0513,0,0.0628,0.0629,0.0631,0.0765,0.0766,0.0768,0.077,0.0837,0.0837,0.0837,0,0,0,0,0,0,0,0,0,0,0,0,0,0,0,0,0,0,0,0,0,0,0,0,0,0,0,0,0,0,0,0,0,0,0,0,0,0,0,0,0,0,0,0,0,0,0,0,0,0,0,0,0,0,0,0,0,0,0,0,0,0,0,0,0,0,0,0,0]}]]]